Location: Kershaw
(34.5481°N, 80.5823°W)
Time: 07:10:16
(UTC+00:00)

Tiros 1 despin weight - Pass Details

Date: 09 October 2022
Orbit: 590 x 637 km, 48.2° (Epoch: 28 November)

Event Time Altitude Azimuth Distance (km) Brightness Sun altitude
Rises 23:14:56 0° 313° (NW) 2,863 ? -4.8°
Reaches altitude 10° 23:17:36 10° 328° (NNW) 1,967 ? -5.4°
Maximum altitude 23:21:16 24° 22° (NNE) 1,300 ? -6.1°
Drops below altitude 10° 23:24:57 10° 76° (ENE) 1,988 ? -6.9°
Enters shadow 23:25:23 - 79° (E) 2,126 ? -7.0°
Sets 23:27:40 0° 90° (E) 2,902 - -7.4°
